GW4950 Weather Reports


Display with metric or nautical units.
time (UTC)temp
F
wind
direction
speed
MPH
gust
MPH
rain 1hr
in
rain 24hr
in
rain mn
in
humidity
%
barometer
mb
20260508053009 47 4 0.0 0.0 0.02 0.02 0.02 91 1010.7
20260508051534 46 4 0.0 3.0 0.01 0.02 0.01 91 1010.7
20260508050023 46 4 0.0 0.0 0.00 0.01 0.00 91 1010.7
20260508044545 46 4 0.0 0.0 0.00 0.01 0.00 91 1010.5
20260508043041 45 4 0.0 0.0 0.00 0.01 0.00 91 1010.2
20260508041508 45 4 0.0 0.0 0.00 0.01 0.00 91 1010.2
20260508040055 45 4 0.0 0.0 0.00 0.01 0.00 91 1010.1
20260508034538 45 4 0.0 0.0 0.00 0.01 0.00 91 1010.0
20260508033025 45 4 0.0 0.0 0.00 0.01 0.00 91 1010.1
20260508031527 44 4 0.0 0.0 0.00 0.01 0.00 91 1010.1
20260508030013 44 4 0.0 0.0 0.00 0.01 0.00 91 1010.0
20260508024535 44 4 0.0 3.0 0.00 0.01 0.00 91 1010.0
20260508021559 43 4 0.0 3.0 0.00 0.01 0.00 90 1010.0
20260508020003 44 4 0.0 4.0 0.00 0.01 0.00 90 1010.2
20260508014519 43 4 0.0 3.0 0.00 0.01 0.00 90 1010.6
20260508013007 43 4 1.0 3.0 0.00 0.01 0.00 90 1010.8
20260508011534 43 4 0.0 0.0 0.00 0.01 0.00 90 1010.7
20260508010032 43 4 0.0 0.0 0.00 0.01 0.00 90 1010.8
20260508004536 43 4 0.0 2.0 0.00 0.01 0.00 89 1011.0
20260508003024 43 4 0.0 0.0 0.00 0.01 0.00 89 1011.0
20260508001544 44 4 0.0 3.0 0.00 0.01 0.00 88 1011.1
20260508000031 44 50 2.0 4.0 0.00 0.01 0.00 89 1011.2
20260507234557 43 50 0.0 0.0 0.00 0.01 0.01 89 1011.3
20260507233042 43 50 0.0 0.0 0.00 0.01 0.01 88 1011.6
20260507231517 43 50 0.0 0.0 0.00 0.01 0.01 86 1011.8
20260507230114 44 50 0.0 0.0 0.00 0.01 0.01 86 1011.7
20260507230000 44 50 0.0 0.0 0.00 0.01 0.01 86 1011.7
20260507224530 44 50 0.0 0.0 0.00 0.01 0.01 86 1011.7
20260507223040 44 50 0.0 0.0 0.00 0.01 0.01 85 1011.7
20260507221545 45 50 0.0 0.0 0.00 0.01 0.01 85 1011.9
20260507220044 45 50 0.0 0.0 0.00 0.01 0.01 85 1011.9
20260507214559 45 50 0.0 0.0 0.00 0.01 0.01 83 1011.7
20260507213034 46 50 2.0 4.0 0.00 0.01 0.01 83 1011.5
20260507211553 47 50 0.0 0.0 0.00 0.01 0.01 83 1011.5
20260507210043 47 50 0.0 0.0 0.00 0.01 0.01 82 1011.3
20260507204525 47 50 0.0 0.0 0.00 0.01 0.01 82 1011.1
20260507203037 48 50 0.0 3.0 0.00 0.01 0.01 81 1010.7
20260507201526 48 50 0.0 2.0 0.00 0.01 0.01 79 1010.5
20260507200035 49 50 0.0 0.0 0.00 0.01 0.01 80 1010.3
20260507194532 49 50 2.0 4.0 0.00 0.01 0.01 77 1010.0
20260507193037 51 50 2.0 3.0 0.00 0.01 0.01 75 1009.8
20260507191544 52 50 2.0 4.0 0.00 0.01 0.01 71 1009.7
20260507190040 52 50 0.0 3.0 0.00 0.01 0.01 69 1009.3
20260507184554 55 50 0.0 0.0 0.00 0.01 0.01 66 1009.2
20260507183043 55 50 0.0 2.0 0.00 0.01 0.01 64 1009.1
20260507181508 56 50 0.0 5.0 0.00 0.01 0.01 62 1009.0
20260507180058 56 37 4.0 9.0 0.00 0.01 0.01 63 1008.7
20260507174521 56 118 0.0 6.0 0.00 0.01 0.01 62 1008.9
20260507173015 57 87 2.0 7.0 0.00 0.01 0.01 64 1008.8
20260507171529 57 48 3.0 10.0 0.00 0.01 0.01 64 1008.8
20260507170020 58 19 6.0 11.0 0.00 0.01 0.01 69 1008.9
20260507164536 58 17 6.0 10.0 0.00 0.01 0.01 71 1009.0
20260507163021 56 29 5.0 10.0 0.00 0.01 0.01 71 1009.1
20260507161551 54 20 3.0 8.0 0.00 0.01 0.01 75 1009.0
20260507160044 54 32 5.0 11.0 0.00 0.01 0.01 75 1008.9
20260507154547 53 36 3.0 8.0 0.00 0.01 0.01 76 1008.8
20260507153042 53 64 1.0 5.0 0.00 0.01 0.01 77 1009.1
20260507151508 52 70 1.0 7.0 0.00 0.01 0.01 77 1009.2
20260507144541 51 48 0.0 7.0 0.00 0.01 0.01 83 1009.4
20260507143040 51 36 5.0 10.0 0.01 0.01 0.01 84 1009.3
20260507141505 50 59 3.0 7.0 0.01 0.01 0.01 85 1009.2
20260507140054 50 109 3.0 9.0 0.01 0.01 0.01 86 1009.0
20260507134511 50 103 6.0 10.0 0.01 0.01 0.01 85 1009.0
20260507133058 51 112 8.0 14.0 0.00 0.00 0.00 80 1008.9
20260507131522 56 128 8.0 16.0 0.00 0.00 0.00 64 1008.8
20260507130109 58 112 6.0 12.0 0.00 0.00 0.00 64 1008.2
20260507124549 59 77 5.0 11.0 0.00 0.00 0.00 62 1008.2
20260507123041 60 73 5.0 10.0 0.00 0.00 0.00 60 1008.2
20260507121603 62 254 3.0 9.0 0.00 0.00 0.00 56 1008.2
20260507121501 62 249 5.0 9.0 0.00 0.00 0.00 56 1008.2
20260507120048 61 106 3.0 7.0 0.00 0.00 0.00 62 1008.3
20260507114557 61 67 3.0 7.0 0.00 0.00 0.00 59 1008.6
20260507113034 61 106 1.0 5.0 0.00 0.00 0.00 59 1009.0
20260507111521 58 189 0.0 7.0 0.00 0.00 0.00 64 1009.4
20260507110007 59 123 4.0 9.0 0.00 0.00 0.00 62 1009.4
20260507104528 58 139 2.0 9.0 0.00 0.00 0.00 62 1009.6
20260507103023 57 119 5.0 14.0 0.00 0.00 0.00 65 1009.8
20260507101540 57 142 5.0 10.0 0.00 0.00 0.00 65 1010.0
20260507100023 56 108 4.0 8.0 0.00 0.00 0.00 67 1010.0
20260507094536 55 110 3.0 9.0 0.00 0.00 0.00 69 1010.0
20260507093025 55 99 5.0 9.0 0.00 0.00 0.00 71 1009.9
20260507091545 55 127 5.0 7.0 0.00 0.00 0.00 71 1010.1
20260507090033 54 101 4.0 7.0 0.00 0.00 0.00 71 1010.0
20260507084600 55 58 1.0 9.0 0.00 0.00 0.00 71 1009.9
20260507083044 54 78 4.0 7.0 0.00 0.00 0.00 74 1009.8
20260507081605 52 73 5.0 8.0 0.00 0.00 0.00 74 1009.8
20260507080053 52 102 5.0 10.0 0.00 0.00 0.00 74 1009.8
20260507074508 52 78 4.0 11.0 0.00 0.00 0.00 74 1009.9
20260507073010 52 73 3.0 8.0 0.00 0.00 0.00 75 1009.8
20260507071536 52 88 2.0 8.0 0.00 0.00 0.00 75 1009.8
20260507070035 52 71 4.0 9.0 0.00 0.00 0.00 75 1009.6
20260507064542 52 56 5.0 12.0 0.00 0.00 0.00 75 1009.6
20260507063048 52 42 5.0 10.0 0.00 0.00 0.00 75 1009.6
20260507061558 52 57 4.0 10.0 0.00 0.00 0.00 75 1009.5
20260507060015 52 56 4.0 11.0 0.00 0.00 0.00 75 1009.3
20260507054536 52 62 4.0 10.0 0.00 0.00 0.00 74 1009.1